Temperature
25 24 23 22 21 20 20 19 19 19 19 18 18 18 18 18 18 18 18 18 18 18 18 18 18 18 18 18 18 18 18 18 18 18 18 18 18 18 18 18 18 18 18
25 24 23 22 21 20 20 20 19 19 19 19 19 18 18 18 18 18 18 18 18 18 18 18 18 18 18 18 18 18 18 18 18 18 18 18 18 18 18 18 18 18 18
25 24 23 22 21 21 20 20 20 19 19 19 19 19 18 18 18 18 18 18 18 18 18 18 18 18 18 18 18 18 18 18 18 18 18 18 18 18 18 18 18 18 18
26 24 23 23 22 21 20 20 20 19 19 19 19 19 18 18 18 18 18 18 18 18 18 18 18 18 18 18 18 18 18 18 18 18 18 18 18 18 18 18 18 18 18
26 25 24 23 22 21 21 20 20 19 19 19 19 19 19 18 18 18 18 18 18 18 18 18 18 18 18 18 18 18 18 18 18 18 18 18 18 18 18 18 18 18 18
26 25 24 23 23 22 21 20 20 19 19 19 19 19 19 18 18 18 18 18 18 18 18 18 18 18 18 18 18 18 18 18 18 18 18 18 18 18 18 18 18 18 18
26 25 24 23 22 22 21 20 20 20 19 19 19 19 19 18 18 18 18 18 18 18 18 18 18 18 18 18 18 18 18 18 18 18 18 18 18 18 18 18 18 18 18
26 25 24 23 22 22 21 20 20 20 19 19 19 19 18 18 18 18 18 18 18 18 18 18 18 18 18 18 18 18 18 18 18 17 18 17 18 18 18 18 18 17 18
25 25 24 23 22 22 21 21 20 20 19 19 19 19 19 18 18 18 18 18 18 18 18 18 18 18 18 18 18 18 18 18 17 17 17 17 17 17 17 17 18 17 17
25 25 24 23 22 22 21 21 20 19 19 19 19 18 18 18 18 18 18 18 18 18 18 18 18 18 18 17 17 17 17 17 17 17 17 17 17 17 17 17 17 17 17
26 25 24 23 22 22 21 20 20 19 19 19 18 18 18 18 18 18 18 18 18 18 17 17 17 17 17 17 17 17 17 17 17 17 17 17 17 17 17 17 17 17 17
25 25 24 23 22 22 21 20 20 19 19 19 19 18 18 18 18 18 18 18 17 17 17 17 17 17 17 17 17 17 17 16 17 17 17 17 17 17 17 17 17 17 17
24 24 23 22 22 21 21 20 19 19 19 19 18 18 18 18 18 17 17 17 17 17 17 17 17 17 17 16 17 17 16 16 16 16 16 16 16 16 16 17 17 17 17
24 23 22 21 21 21 20 20 19 19 19 19 18 18 18 18 18 17 17 17 17 17 17 17 16 16 16 16 16 16 16 16 16 16 16 16 16 16 16 16 16 16 16
23 22 21 21 20 20 20 20 19 19 19 18 18 18 18 17 17 17 17 17 17 16 16 16 16 16 16 16 16 16 16 16 16 16 16 16 16 16 16 16 16 16 16
22 21 20 20 20 19 19 19 19 19 18 18 18 17 17 17 17 17 17 16 16 16 16 16 16 16 16 16 16 16 16 16 16 15 16 16 16 16 16 16 16 16 15
22 21 20 20 19 19 19 18 18 18 18 18 17 17 17 17 16 16 16 16 16 16 16 16 16 16 16 16 16 16 16 15 15 15 15 15 15 15 16 16 15 15 15
21 20 20 19 19 19 18 18 18 18 18 17 17 17 16 16 16 16 16 16 15 15 15 15 15 15 15 15 15 15 15 15 15 15 15 14 15 15 15 15 15 15 15
20 20 19 19 18 18 18 18 17 17 17 17 16 16 16 16 16 16 15 15 15 15 15 15 15 15 15 15 15 15 15 15 14 14 14 14 14 15 15 15 14 14 14
19 19 19 18 18 17 17 17 17 16 16 16 16 16 16 16 15 15 15 15 15 15 15 14 14 14 14 14 14 14 14 14 14 14 14 14 14 14 14 14 14 14 14
19 18 18 18 17 17 17 16 16 16 16 16 16 15 15 15 15 15 15 15 15 15 14 14 14 14 14 14 14 14 14 14 13 13 13 13 14 14 14 14 13 13 13
18 18 17 17 17 16 16 16 16 16 15 15 15 15 15 15 15 15 15 14 14 14 14 14 14 14 14 14 14 13 13 13 13 13 13 13 13 13 13 13 13 13 13
18 17 17 16 16 16 16 16 15 15 15 15 15 15 15 15 15 15 14 14 14 14 14 13 13 13 13 13 13 13 13 13 13 13 13 13 13 12 12 12 12 12 12
17 16 16 16 16 15 15 15 15 15 15 15 15 15 15 15 14 14 14 14 14 14 13 13 13 13 13 13 13 13 13 13 12 12 12 12 12 12 12 12 12 12 12
16 16 16 15 15 15 15 15 15 15 14 14 14 14 14 14 14 14 14 14 14 14 14 13 13 13 13 13 13 13 12 12 12 12 12 12 12 12 12 12 11 11 11
16 16 15 15 15 15 14 14 14 14 14 14 14 14 14 14 14 14 14 14 14 13 13 13 13 13 13 13 13 12 12 12 12 11 11 11 11 11 11 11 11 11 11
Wind_Speed
11 11 10 10 9 7 6 5 4 4 2 2 2 2 2 2 3 3 3 5 4 3 2 2 2 2 2 2 3 2 2 2 2 1 1 1 3 4 4 3 3 4 6
12 11 10 9 9 8 7 5 5 4 3 3 2 2 2 2 3 2 3 4 4 4 3 3 2 2 3 3 2 2 1 1 1 1 1 0 1 1 3 3 4 3 3
13 13 11 10 9 9 8 6 6 5 4 4 3 2 2 1 2 3 2 2 3 3 2 3 2 2 2 3 3 2 2 1 1 2 2 1 1 1 1 3 3 4 4
12 12 11 10 9 9 9 7 6 5 5 4 3 3 3 2 2 3 3 3 2 2 2 3 3 2 2 2 2 3 2 2 2 2 2 2 1 1 1 1 2 3 4
12 11 10 8 8 9 9 8 7 6 5 4 3 3 2 2 2 3 3 3 2 2 2 2 2 2 2 1 1 1 1 1 2 1 1 2 2 3 2 2 1 2 3
10 10 10 9 7 8 9 9 8 7 6 5 4 3 2 2 2 2 3 3 2 2 3 3 2 2 1 1 1 1 1 1 2 2 2 1 1 2 2 2 3 3 3
8 10 10 9 7 7 7 8 9 7 7 6 5 4 3 3 3 2 2 3 2 2 3 3 2 2 2 2 2 1 1 1 2 2 2 2 2 2 2 2 3 3 2
6 9 10 9 8 7 7 7 8 7 7 6 5 4 4 3 3 3 2 2 2 2 3 3 3 2 2 2 2 2 2 2 2 3 3 2 2 2 2 2 2 3 2
4 7 8 8 8 7 7 7 8 7 6 6 5 4 4 3 3 2 2 2 2 2 2 3 3 3 2 2 2 2 2 2 3 3 3 3 2 2 3 3 2 3 3
5 6 8 7 7 7 7 7 8 7 7 6 5 5 5 4 3 3 2 2 2 1 1 2 2 3 2 2 3 3 2 3 3 3 2 3 3 3 2 3 2 3 3
4 4 7 7 7 6 6 5 6 6 6 6 5 4 4 4 4 3 3 2 2 2 2 2 2 3 3 3 3 3 3 3 3 3 3 3 3 3 3 3 2 3 2
4 3 4 5 5 5 5 4 5 5 5 4 4 4 3 3 3 3 3 3 3 2 2 2 3 3 3 3 3 4 4 4 4 3 3 4 3 3 3 3 3 3 3
6 5 5 4 3 4 4 4 4 4 4 4 4 3 4 4 3 3 2 2 2 2 2 2 2 2 3 3 3 3 3 4 3 3 3 3 3 3 3 3 3 3 4
6 6 5 3 3 3 4 4 4 3 3 4 4 3 3 3 3 3 3 2 2 2 2 2 2 2 3 3 3 3 3 3 3 2 2 2 2 3 3 3 3 3 4
5 4 3 3 3 3 3 3 3 2 3 3 3 3 3 2 2 2 2 2 2 2 2 2 2 2 2 2 2 3 3 3 3 2 2 2 2 2 2 3 2 3 3
4 3 3 2 3 2 2 1 1 2 2 2 2 2 3 2 2 2 2 2 1 1 1 1 1 1 2 2 2 2 2 3 3 3 3 3 3 3 3 2 2 2 3
3 4 3 2 2 2 2 1 1 1 2 2 2 2 2 2 2 2 1 1 1 1 1 1 1 1 2 2 3 2 2 3 3 3 3 4 3 1 2 3 4 4 5
4 4 3 3 2 2 2 1 1 1 2 2 2 2 2 2 1 1 1 1 1 1 1 0 0 0 1 3 3 3 3 3 3 3 3 2 2 3 2 3 4 4 4
3 3 2 2 2 2 2 2 1 1 1 2 2 2 2 1 1 1 1 1 0 1 1 1 1 0 1 2 3 3 3 3 3 2 1 1 0 3 4 4 4 4 4
3 2 2 2 2 2 2 2 1 1 0 1 1 1 1 2 1 1 1 1 1 0 1 1 1 1 0 1 2 2 3 2 2 1 0 1 1 2 2 3 4 5 5
3 3 3 3 3 2 2 1 1 1 1 0 1 1 1 2 2 1 1 1 1 1 1 1 2 2 1 1 1 1 2 3 3 2 1 1 1 1 2 3 4 5 6
2 3 3 3 2 2 1 0 1 1 0 1 1 1 1 2 2 1 1 1 1 2 2 2 2 2 2 1 1 2 3 4 3 3 1 2 2 3 4 4 5 7 6
2 2 2 2 2 1 1 1 1 1 0 0 1 1 2 2 2 3 3 2 2 2 2 2 1 0 1 1 2 2 3 4 3 3 4 3 4 5 4 6 6 6 4
2 2 2 2 2 1 1 1 1 1 0 1 1 1 2 2 2 2 2 2 2 1 1 1 1 0 1 1 2 2 2 3 2 3 3 4 4 4 4 4 4 4 4
1 1 1 1 1 1 1 1 1 0 1 1 2 2 2 2 2 2 1 2 1 2 1 0 0 0 0 1 1 1 2 3 3 4 3 2 2 2 3 3 2 2 3
0 1 0 1 0 1 1 1 1 0 1 1 1 1 2 2 3 3 2 2 2 4 4 3 2 1 1 1 1 2 3 4 3 2 2 3 3 3 3 3 3 2 3
Wind_Direction
150 145 147 145 145 141 143 145 142 132 138 136 145 151 141 139 128 136 145 147 151 150 143 123 133 137 123 126 125 128 144 160 159 123 114 186 190 187 191 198 202 194 188
152 153 155 155 155 152 155 158 150 148 153 150 155 154 154 146 141 125 135 146 148 155 155 129 132 125 130 139 139 128 134 169 174 169 178 214 215 190 207 189 196 193 184
158 159 164 166 166 163 161 161 156 156 166 160 155 152 141 133 117 122 129 135 143 141 122 127 125 115 132 154 166 174 192 193 223 208 190 185 209 222 230 208 197 184 186
158 161 166 169 169 164 161 156 154 155 159 161 162 169 157 143 139 138 132 129 127 123 135 136 142 141 146 156 182 160 193 209 237 221 223 223 191 209 229 238 203 192 187
156 159 160 163 169 164 159 157 149 150 153 162 165 173 164 154 137 138 137 136 134 147 154 147 148 153 162 146 124 107 177 225 245 249 229 219 213 226 217 238 243 221 203
151 152 156 156 160 159 162 162 151 154 159 165 167 176 176 148 145 150 147 155 158 164 160 157 155 152 156 163 156 150 175 272 282 287 275 248 221 233 230 228 237 242 233
150 153 154 154 156 157 158 153 148 157 166 174 177 180 186 185 176 177 175 168 167 169 166 160 157 155 165 170 148 172 215 247 273 284 283 283 267 254 249 226 247 261 257
143 150 151 152 155 159 153 150 149 160 170 177 182 182 190 197 188 187 197 177 178 170 152 164 166 172 187 188 171 204 217 228 250 267 277 281 285 278 260 249 247 264 267
131 147 145 151 158 160 156 156 152 161 168 173 172 176 186 197 188 191 198 200 187 185 176 174 169 178 192 203 214 214 231 232 235 249 265 261 271 265 257 257 247 245 258
150 157 143 145 151 157 150 152 157 163 167 171 181 180 185 189 176 186 200 201 189 186 204 191 180 188 198 214 222 226 232 235 241 237 262 275 268 267 259 255 258 256 250
128 142 140 146 145 142 140 143 149 157 165 172 179 181 177 183 184 187 190 188 184 192 201 203 202 203 206 221 225 230 229 232 243 249 253 260 270 280 281 276 268 264 248
103 117 121 132 134 140 136 139 160 162 165 167 171 174 171 178 184 192 198 195 196 203 199 208 216 220 220 227 234 234 241 239 243 244 247 254 259 272 278 281 277 277 267
79 76 73 88 110 129 131 144 156 159 167 165 164 161 175 184 190 198 199 197 198 207 214 211 219 229 240 245 248 245 249 252 254 251 248 252 251 269 265 276 285 278 276
81 77 71 60 65 98 124 136 148 158 159 154 160 163 179 185 191 190 194 200 203 215 226 235 236 236 242 250 255 251 253 259 265 266 264 269 268 277 280 270 280 282 287
83 73 72 66 65 71 90 123 142 149 155 158 168 174 178 178 181 186 194 197 205 216 221 236 249 251 251 259 260 251 240 244 252 254 259 269 280 280 269 272 289 287 283
102 96 80 83 90 89 81 95 138 138 147 163 172 166 166 167 181 192 186 196 214 218 231 250 262 262 275 332 350 293 266 255 247 247 248 242 251 247 232 242 259 264 270
96 94 92 87 98 115 101 76 121 139 145 150 153 151 158 166 177 197 188 203 210 181 216 276 277 300 340 352 356 331 272 268 263 266 268 272 282 252 257 242 248 259 263
81 76 84 95 88 79 84 75 66 120 136 141 139 143 158 163 157 173 185 191 186 182 196 266 350 281 335 359 349 327 265 265 260 260 271 284 328 312 310 286 267 256 259
82 83 85 83 72 62 52 55 53 69 121 138 143 147 156 156 158 181 186 163 154 182 169 144 134 314 336 351 341 325 285 273 273 271 294 290 294 319 320 298 290 286 276
95 94 90 78 73 59 60 46 35 44 105 155 147 138 161 178 186 215 218 198 175 192 203 177 169 200 289 336 357 341 294 286 290 287 313 28 330 309 327 300 298 290 291
90 81 77 71 57 53 80 56 5 310 313 317 155 157 188 196 176 173 179 179 207 218 237 237 198 193 200 262 306 333 318 311 299 292 292 286 298 300 299 291 287 287 294
92 84 74 63 53 42 75 91 327 313 301 279 230 186 199 228 190 169 188 206 222 229 235 241 236 208 191 209 279 275 279 295 303 307 316 312 300 291 285 282 286 295 300
76 77 67 65 69 59 42 15 349 331 301 224 233 213 188 196 195 201 207 212 215 230 231 230 239 253 91 47 354 309 298 300 296 316 324 308 296 299 290 276 281 288 286
69 76 53 33 11 23 48 27 357 313 236 205 233 222 173 176 182 186 185 203 216 229 239 232 241 212 87 42 6 341 320 311 301 311 306 288 273 279 285 291 287 274 272
47 60 50 18 359 359 356 26 356 308 259 236 226 227 197 188 189 191 205 199 173 177 199 275 335 116 241 276 257 288 311 318 314 311 292 294 301 298 291 292 292 282 274
356 15 325 280 333 7 4 11 301 209 234 249 242 231 204 197 195 179 158 75 111 148 144 151 165 137 126 149 346 327 325 327 341 336 312 319 320 317 312 307 306 305 305
Height
1511 1514 1516 1518 1519 1519 1520 1520 1521 1521 1522 1522 1523 1524 1525 1526 1527 1528 1529 1530 1530 1531 1531 1532 1533 1534 1535 1536 1537 1538 1539 1541 1542 1543 1544 1545 1546 1546 1547 1548 1548 1548 1549
1509 1513 1515 1517 1518 1518 1519 1519 1520 1521 1522 1523 1524 1525 1526 1527 1528 1529 1530 1530 1531 1531 1532 1532 1533 1534 1535 1536 1537 1538 1539 1541 1542 1543 1544 1544 1546 1545 1546 1546 1546 1547 1548
1506 1510 1514 1516 1517 1518 1518 1519 1520 1521 1521 1523 1524 1526 1527 1528 1529 1530 1530 1531 1531 1532 1532 1533 1533 1534 1535 1536 1537 1538 1539 1540 1541 1542 1543 1543 1543 1544 1545 1544 1545 1545 1546
1504 1508 1511 1514 1515 1517 1518 1518 1519 1520 1521 1523 1524 1525 1527 1528 1529 1530 1530 1531 1532 1532 1533 1533 1534 1535 1535 1536 1537 1538 1538 1539 1540 1541 1542 1543 1543 1543 1543 1544 1544 1544 1544
1501 1505 1509 1512 1514 1516 1517 1518 1518 1520 1521 1522 1524 1525 1526 1528 1529 1530 1530 1531 1532 1532 1533 1534 1534 1535 1535 1536 1536 1537 1538 1538 1539 1540 1540 1541 1542 1542 1542 1542 1542 1542 1542
1500 1504 1508 1510 1513 1515 1516 1517 1517 1519 1520 1522 1523 1524 1526 1527 1528 1529 1530 1531 1531 1532 1533 1533 1534 1534 1535 1535 1535 1536 1537 1537 1537 1538 1539 1540 1540 1540 1540 1540 1540 1540 1540
1498 1502 1506 1509 1511 1513 1515 1516 1516 1518 1519 1521 1522 1523 1525 1526 1527 1528 1529 1530 1531 1532 1532 1533 1533 1534 1534 1534 1535 1535 1535 1536 1536 1537 1537 1538 1538 1538 1539 1538 1538 1538 1537
1497 1501 1504 1507 1509 1511 1513 1514 1515 1516 1518 1519 1521 1522 1524 1525 1526 1527 1528 1529 1530 1531 1531 1532 1532 1532 1533 1533 1533 1534 1534 1534 1535 1535 1536 1536 1536 1537 1537 1537 1536 1536 1535
1497 1500 1502 1505 1508 1510 1511 1513 1514 1515 1516 1518 1519 1520 1522 1523 1525 1526 1527 1528 1529 1530 1530 1530 1531 1531 1531 1532 1532 1532 1533 1533 1533 1533 1534 1534 1534 1534 1534 1534 1535 1535 1533
1497 1499 1501 1504 1506 1508 1510 1511 1512 1514 1515 1516 1518 1519 1520 1521 1523 1524 1525 1526 1527 1528 1528 1529 1529 1529 1529 1530 1530 1530 1531 1531 1531 1531 1531 1531 1531 1532 1532 1532 1532 1532 1531
1496 1498 1500 1503 1505 1507 1508 1510 1512 1513 1514 1515 1516 1518 1519 1520 1521 1522 1523 1524 1525 1526 1526 1527 1527 1527 1527 1528 1528 1528 1529 1529 1528 1528 1529 1529 1529 1529 1529 1529 1529 1529 1529
1494 1498 1500 1502 1504 1506 1507 1509 1511 1512 1512 1513 1515 1516 1517 1519 1520 1520 1521 1522 1523 1523 1524 1524 1525 1525 1525 1526 1526 1526 1526 1526 1526 1526 1526 1526 1526 1526 1526 1526 1526 1526 1526
1495 1498 1499 1502 1503 1504 1506 1508 1509 1510 1512 1512 1513 1514 1515 1517 1518 1519 1520 1520 1520 1521 1522 1522 1522 1523 1523 1523 1523 1523 1523 1523 1523 1523 1523 1523 1523 1523 1523 1522 1523 1523 1523
1497 1498 1500 1502 1503 1503 1505 1506 1508 1510 1510 1511 1511 1512 1513 1515 1516 1516 1517 1518 1518 1519 1519 1520 1520 1520 1520 1520 1520 1520 1520 1520 1520 1520 1520 1520 1520 1520 1520 1520 1520 1520 1520
1498 1499 1500 1502 1503 1503 1504 1506 1507 1508 1509 1509 1510 1510 1511 1513 1513 1514 1515 1515 1516 1517 1517 1517 1517 1517 1517 1517 1517 1517 1517 1517 1517 1517 1517 1517 1517 1516 1517 1517 1516 1517 1516
1498 1500 1501 1502 1503 1504 1504 1506 1506 1507 1508 1508 1509 1509 1510 1510 1511 1511 1512 1513 1513 1514 1514 1514 1514 1514 1514 1515 1514 1514 1514 1514 1514 1513 1513 1514 1514 1513 1513 1513 1513 1513 1513
1499 1500 1501 1502 1503 1503 1503 1505 1505 1506 1506 1507 1507 1508 1508 1508 1509 1509 1510 1510 1511 1511 1511 1511 1511 1511 1511 1511 1511 1511 1511 1511 1511 1511 1511 1511 1511 1510 1509 1509 1510 1509 1509
1499 1500 1501 1502 1502 1503 1503 1504 1504 1505 1505 1505 1506 1506 1506 1507 1507 1508 1508 1508 1509 1509 1508 1509 1509 1508 1508 1508 1507 1507 1507 1507 1507 1508 1508 1507 1506 1506 1506 1505 1505 1505 1505
1498 1500 1501 1501 1502 1502 1502 1502 1502 1503 1503 1503 1503 1504 1504 1505 1505 1505 1506 1506 1506 1506 1506 1506 1506 1506 1506 1505 1505 1504 1504 1504 1504 1504 1504 1503 1502 1503 1502 1502 1501 1500 1500
1498 1499 1500 1501 1501 1501 1501 1501 1501 1501 1501 1501 1501 1502 1502 1503 1503 1503 1504 1504 1505 1505 1505 1505 1504 1504 1504 1503 1502 1502 1502 1501 1501 1501 1500 1499 1499 1499 1499 1498 1497 1496 1496
1498 1498 1499 1499 1499 1499 1499 1499 1499 1499 1499 1499 1499 1499 1500 1501 1501 1502 1502 1502 1503 1503 1503 1503 1503 1503 1502 1501 1501 1500 1499 1499 1499 1498 1497 1496 1496 1496 1495 1494 1494 1493 1493
1497 1498 1498 1498 1498 1498 1498 1498 1498 1498 1498 1497 1497 1497 1498 1499 1500 1500 1500 1501 1501 1501 1501 1501 1501 1501 1500 1500 1499 1498 1498 1497 1496 1496 1494 1494 1493 1493 1492 1491 1490 1490 1489
1496 1496 1497 1497 1497 1497 1497 1497 1497 1497 1496 1496 1496 1496 1496 1497 1498 1498 1499 1499 1499 1500 1500 1500 1499 1499 1498 1498 1497 1496 1495 1494 1494 1493 1492 1492 1491 1490 1489 1488 1487 1486 1485
1495 1495 1494 1495 1496 1495 1495 1495 1495 1495 1495 1494 1495 1495 1495 1495 1496 1496 1497 1497 1497 1498 1498 1498 1498 1497 1497 1496 1495 1494 1493 1492 1491 1490 1490 1489 1488 1487 1486 1485 1484 1483 1483
1495 1494 1493 1494 1494 1494 1493 1493 1493 1493 1493 1493 1493 1493 1493 1494 1494 1495 1495 1496 1496 1496 1496 1496 1495 1495 1494 1494 1493 1492 1491 1490 1489 1488 1487 1486 1485 1485 1484 1483 1482 1481 1480
1494 1494 1493 1493 1493 1493 1491 1491 1491 1491 1491 1491 1491 1492 1492 1492 1492 1493 1493 1494 1494 1494 1494 1494 1494 1493 1493 1492 1492 1491 1490 1489 1488 1486 1485 1484 1484 1483 1482 1481 1479 1478 1477